Other Surface Observations
Issued by NWS Jacksonville, FL

Home | Current Version | Previous Version | Text Only | Print | Product List | Glossary On
Versions: 1 2 3 4 5 6 7 8 9 10 11 12 13 14 15 16 17 18 19 20 21 22 23 24 25 26 27 28 29 30 31 32 33 34 35 36 37 38 39 40 41 42 43 44 45 46 47 48 49 50
000
SXUS52 KJAX 202210
OSOJAX
OTHER SURFACE OBSERVATIONS
NATIONAL WEATHER SERVICE JACKSONVILLE FL
600 PM EDT SAT SEP 20 2014

FLZ020>025-030>033-035>038-040-202300-
...FLORIDA...

CITY           SKY/WX    TMP DP  RH WIND       PRES   REMARKS
CECIL FIELD    PTSUNNY   73  70  88 NE12G24   29.93S
HERLONG FIELD  NOT AVBL
FERNANDINA BCH NOT AVBL
LAKE CITY      MOCLDY    75  70  83 NE5       29.94R
JUNIPER SPGS   NOT AVBL
BUNNELL        LGT RAIN  73  72  94 N9        29.89R
KEYSTONE HGTS    N/A     77  72  83 N8        29.93S
$$

GAZ132>136-149>154-162>166-202300-
...GEORGIA...

CITY           SKY/WX    TMP DP  RH WIND       PRES   REMARKS
JESUP          FAIR      79  70  73 NE8       29.96F
HOMERVILLE     CLOUDY    82  70  65 E6        29.96R
SWAINSBORO     FAIR      82  66  57 E10G17    30.00S
CORDELE        NOT AVBL
$$

PLEASE NOTE:  THESE OBSERVATIONS ARE NOT QUALITY CONTROLLED AND MAY
NOT BE AVAILABLE AT ALL TIMES.
$$



USA.gov is the U.S. government's official web portal to all federal, state and local government web resources and services.